Location: Unspecified
(0.0000°N, 0.0000°E)
Time: 01:37:36
(UTC+01:00)

Vanguard 1 Rocket - Visible Passes

Search period start: 14 December 2017 00:00
Search period end: 24 December 2017 00:00
Orbit: 656 x 4222 km, 34.3° (Epoch: 13 December)

Date Brightness Start Highest point End Pass type
(mag) Time Alt. Az. Time Alt. Az. Time Alt. Az.
14 Dec 10.2 02:53:15 74° SSW 02:53:15 74° SSW 03:10:27 10° SE visible
14 Dec 10.7 05:10:30 15° W 05:23:20 27° SW 05:34:22 10° SSE visible
14 Dec 11.0 20:15:42 10° NNW 20:24:47 16° NNE 20:29:43 15° NNE visible
14 Dec 11.2 22:42:00 10° NNW 23:28:22 - E 22:47:00 20° NNW visible
15 Dec 10.5 01:45:36 54° ESE 01:45:36 54° ESE 01:58:18 10° SE visible
15 Dec 10.5 04:02:50 37° WSW 04:09:30 43° SW 04:24:22 10° SSE visible
15 Dec 10.9 19:05:16 10° N 19:08:46 11° N 19:12:46 10° NNE visible
15 Dec 10.9 21:30:14 10° NNW 21:39:54 24° N 21:39:54 24° N visible
16 Dec 11.2 00:37:52 28° ESE 00:37:52 28° ESE 00:44:46 10° ESE visible
16 Dec 10.3 02:55:05 63° SW 02:55:05 63° SW 03:13:24 10° SE visible
16 Dec 11.0 05:12:19 10° WSW 05:26:51 22° SW 05:37:00 10° S visible
16 Dec 11.0 20:19:17 10° NNW 20:29:33 18° NNE 20:32:52 17° NE visible
16 Dec 11.1 22:44:45 10° NNW 23:30:03 - ESE 22:50:10 23° NNW visible
17 Dec 10.5 01:47:15 59° SE 01:47:15 59° SE 02:01:27 10° SE visible
17 Dec 10.8 04:04:29 29° WSW 04:12:34 36° SW 04:27:09 10° SSE visible
17 Dec 10.9 19:10:05 10° N 19:13:42 11° NNE 19:17:50 10° NNE visible
17 Dec 10.8 21:33:08 10° NNW 21:43:13 28° N 21:43:13 28° N visible
18 Dec 11.0 00:00:02 10° NW 00:39:20 34° ESE 00:48:15 10° ESE visible
18 Dec 10.5 02:56:33 52° SW 02:57:53 53° SW 03:16:16 10° SE visible
18 Dec 11.1 05:18:41 10° WSW 05:30:45 17° SSW 05:39:37 10° S visible
18 Dec 10.9 20:22:24 10° NNW 20:33:57 21° NNE 20:36:22 20° NE visible
18 Dec 11.0 22:47:30 10° NW 23:31:19 14° ESE 23:33:21 10° ESE visible
19 Dec 10.5 01:48:31 61° SSE 01:48:31 61° SSE 02:04:26 10° SE visible
19 Dec 11.0 04:05:43 22° WSW 04:15:57 29° SW 04:29:54 10° SSE visible
19 Dec 10.9 19:13:19 10° N 19:18:29 12° NNE 19:24:41 10° NE visible
19 Dec 10.6 21:35:56 10° NNW 21:46:57 34° N 21:46:57 34° N visible
20 Dec 10.9 00:02:56 10° NW 00:40:23 41° SE 00:51:29 10° SE visible
20 Dec 10.8 02:57:34 43° SW 03:00:53 44° SW 03:19:03 10° SSE visible
20 Dec 11.3 05:25:36 10° SW 05:35:02 15° SSW 05:42:22 10° S visible
20 Dec 10.7 20:25:17 10° NNW 20:37:56 25° NNE 20:40:20 24° NE visible
20 Dec 10.9 22:50:18 10° NW 23:32:07 21° ESE 23:37:01 10° ESE visible
21 Dec 10.6 01:49:17 58° S 01:49:17 58° S 02:07:18 10° SE visible
21 Dec 11.2 04:06:27 15° WSW 04:19:41 24° SSW 04:32:43 10° SSE visible
21 Dec 10.8 19:16:00 10° N 19:22:59 14° NNE 19:31:57 10° NE visible
21 Dec 10.4 21:38:42 10° NNW 22:23:41 - ESE 21:51:16 42° NNE visible
22 Dec 10.8 00:06:01 10° NW 00:40:51 48° SE 00:54:29 10° SE visible
22 Dec 11.0 02:58:00 34° WSW 03:04:08 37° SW 03:21:50 10° SSE visible
22 Dec 11.4 05:32:35 10° SW 05:39:39 13° SSW 05:45:27 10° S visible
22 Dec 10.5 20:28:02 10° NNW 20:41:31 30° NE 20:45:04 29° NE visible
22 Dec 10.7 22:53:11 10° NW 23:32:13 29° ESE 23:40:21 10° ESE visible
23 Dec 10.7 01:49:20 52° SSW 01:49:20 52° SSW 02:10:04 10° SE visible
23 Dec 11.3 04:08:00 10° WSW 04:23:50 21° SSW 04:35:42 10° SSE visible
23 Dec 10.7 19:18:33 10° N 19:27:07 18° NNE 19:38:54 10° ENE visible
23 Dec 10.2 21:41:30 10° NW 22:23:19 12° ESE 22:24:28 10° ESE visible
